This is the latest recevied weather packets stored in our database for station/object K8JCL-13. If no packets are shown the sender has not sent any weather packets the latest 1 day(s).
| Time | Temp. | Humidity | Pressure | Rain* | Wind** | Luminosity | Snow |
|---|---|---|---|---|---|---|---|
| 1778025563 | 15° C | 99% | 1007.2 hPa | 1.78 mm | 0 m/s | 1 W/m² | - |
| 1778025262 | 15° C | 99% | 1007.2 hPa | 1.78 mm | 0 m/s | 3 W/m² | - |
| 1778024958 | 15.56° C | 99% | 1007.1 hPa | 1.27 mm | 0.45 m/s, 86° | 4 W/m² | - |
| 1778024656 | 15.56° C | 99% | 1007.1 hPa | 1.27 mm | 0 m/s | 4 W/m² | - |
| 1778024352 | 15.56° C | 99% | 1007.1 hPa | 1.78 mm | 0.45 m/s, 0° | 6 W/m² | - |
| 1778024050 | 15.56° C | 99% | 1007.3 hPa | 1.78 mm | 0 m/s | 9 W/m² | - |
| 1778023747 | 15.56° C | 99% | 1007.2 hPa | 0 mm | 0 m/s | 16 W/m² | - |
| 1778023445 | 15.56° C | 99% | 1007.2 hPa | 1.27 mm | 0 m/s | 14 W/m² | - |
| 1778023141 | 15.56° C | 99% | 1007.2 hPa | 3.05 mm | 0 m/s | 11 W/m² | - |
| 1778022839 | 15.56° C | 99% | 1007.2 hPa | 1.78 mm | 0 m/s | 11 W/m² | - |
| 1778022537 | 15.56° C | 99% | 1007.3 hPa | 0 mm | 0 m/s | 14 W/m² | - |
| 1778022234 | 15.56° C | 99% | 1007.3 hPa | 1.27 mm | 0 m/s | 14 W/m² | - |
| 1778021931 | 15.56° C | 99% | 1007.5 hPa | 1.27 mm | 0 m/s | 13 W/m² | - |
| 1778021628 | 15.56° C | 99% | 1007.8 hPa | 1.78 mm | 0 m/s | 24 W/m² | - |
| 1778021323 | 15.56° C | 99% | 1007.7 hPa | 1.78 mm | 0 m/s | 26 W/m² | - |
| 1778021021 | 15.56° C | 99% | 1007.9 hPa | 1.27 mm | 0 m/s | 30 W/m² | - |
| 1778020718 | 15.56° C | 99% | 1007.8 hPa | 4.32 mm | 0 m/s | 22 W/m² | - |
| 1778020415 | 15.56° C | 99% | 1007.9 hPa | 4.83 mm | 0 m/s | 14 W/m² | - |
| 1778020110 | 15.56° C | 99% | 1008 hPa | 3.05 mm | 0 m/s | 24 W/m² | - |
| 1778019807 | 15.56° C | 99% | 1008 hPa | 3.05 mm | 0 m/s | 10 W/m² | - |
| 1778019504 | 15.56° C | 99% | 1007.9 hPa | 4.83 mm | 0 m/s | 14 W/m² | - |
| 1778019201 | 15.56° C | 99% | 1008.1 hPa | 4.83 mm | 0.45 m/s, 76° | 14 W/m² | - |
| 1778018898 | 15.56° C | 99% | 1008.1 hPa | 3.05 mm | 0 m/s | 7 W/m² | - |
| 1778018595 | 15.56° C | 99% | 1008.2 hPa | 1.27 mm | 0 m/s | 13 W/m² | - |
| 1778018293 | 15.56° C | 99% | 1008.3 hPa | 1.27 mm | 0 m/s | 11 W/m² | - |
* Rain latest hour (hover to see other rain measurements)
** Current wind speed in m/s (hover to see current wind gust speed)